This is the latest recevied weather packets stored in our database for station/object KO4APQ. If no packets are shown the sender has not sent any weather packets the latest 1 day(s).
| Time | Temp. | Humidity | Pressure | Rain* | Wind** | Luminosity | Snow |
|---|---|---|---|---|---|---|---|
| 1778049551 | 17.22° C | 77% | 1014.5 hPa | 0 mm | 0 m/s | 0 W/m² | - |
| 1778049248 | 16.67° C | 72% | 1014.5 hPa | 0 mm | 0.45 m/s, 186° | 0 W/m² | - |
| 1778048946 | 17.22° C | 74% | 1014.6 hPa | 0 mm | 0 m/s | 0 W/m² | - |
| 1778048644 | 17.22° C | 74% | 1014.4 hPa | 0 mm | 0 m/s | 0 W/m² | - |
| 1778048340 | 17.22° C | 73% | 1014.6 hPa | 0 mm | 0 m/s | 0 W/m² | - |
| 1778048037 | 17.22° C | 68% | 1014.6 hPa | 0 mm | 0 m/s | 0 W/m² | - |
| 1778047735 | 17.22° C | 67% | 1014.6 hPa | 0 mm | 0 m/s | 0 W/m² | - |
| 1778047433 | 17.22° C | 73% | 1014.6 hPa | 0 mm | 0 m/s | 0 W/m² | - |
| 1778047129 | 17.22° C | 67% | 1014.8 hPa | 0 mm | 0 m/s | 0 W/m² | - |
| 1778046826 | 17.22° C | 73% | 1014.6 hPa | 0 mm | 0 m/s | 0 W/m² | - |
| 1778046523 | 17.22° C | 69% | 1014.6 hPa | 0 mm | 0 m/s | 0 W/m² | - |
| 1778046220 | 17.22° C | 72% | 1014.5 hPa | 0 mm | 0 m/s | 0 W/m² | - |
| 1778045916 | 17.22° C | 71% | 1014.5 hPa | 0 mm | 0 m/s | 0 W/m² | - |
| 1778045615 | 17.22° C | 72% | 1014.5 hPa | 0 mm | 0 m/s | 0 W/m² | - |
| 1778045313 | 17.22° C | 73% | 1014.6 hPa | 0 mm | 0 m/s | 0 W/m² | - |
| 1778045011 | 17.22° C | 75% | 1014.6 hPa | 0 mm | 0 m/s | 0 W/m² | - |
| 1778044708 | 16.67° C | 69% | 1014.8 hPa | 0 mm | 0 m/s | 0 W/m² | - |
| 1778044404 | 16.67° C | 71% | 1014.9 hPa | 0 mm | 0 m/s | 0 W/m² | - |
| 1778044102 | 16.67° C | 78% | 1014.9 hPa | 0 mm | 0 m/s | 0 W/m² | - |
| 1778043799 | 16.67° C | 77% | 1014.9 hPa | 0 mm | 0 m/s | 0 W/m² | - |
| 1778043496 | 16.67° C | 77% | 1014.7 hPa | 0 mm | 0 m/s | 0 W/m² | - |
| 1778043193 | 16.67° C | 78% | 1014.7 hPa | 0 mm | 0 m/s | 0 W/m² | - |
| 1778042890 | 16.67° C | 77% | 1014.3 hPa | 0 mm | 0 m/s | 0 W/m² | - |
| 1778042587 | 16.67° C | 78% | 1014.6 hPa | 0 mm | 0 m/s | 0 W/m² | - |
| 1778042284 | 16.67° C | 79% | 1015 hPa | 0 mm | 0 m/s | 0 W/m² | - |
* Rain latest hour (hover to see other rain measurements)
** Current wind speed in m/s (hover to see current wind gust speed)